Back to catalog

STARLINK-3970

AliveCommunicationsVLEO
NORAD 52706·PAYLOAD·🇺🇸 United States

Launched May 18, 2022 from Cape Canaveral Space Force Station

Loading…

Next Passes (next 24 hours)

TLE

FreshSource: CelesTrak SupGP

Epoch: Sep 14, 2026, 22:14 UTC

1 52706C 22053BC  26257.92687500 -.00043634  00000+0 -12483-2 0  2579
2 52706  53.1598 351.9764 0001258  68.6552 314.3077 15.35422325    14

Track STARLINK-3970 in real time with AllMySat

Download on the App Store